Regional Weather Roundup
Issued by NWS

Home | Current Version | Previous Version | Graphics & Text | Print | Product List | Glossary On
Versions: 1 2 3 4 5 6 7 8 9 10 11 12 13 14 15 16 17 18 19 20 21 22 23 24 25 26 27 28 29 30 31 32 33 34 35 36 37 38 39 40 41 42 43 44 45 46 47 48 49 50
045
ASUS45 KABQ 100801
RWRNM
NEW MEXICO REGIONAL WEATHER ROUNDUP
NATIONAL WEATHER SERVICE ALBUQUERQUE NM
100 AM MST WED FEB 10 2016

NOTE: "FAIR" MEANS FEW OR NO CLOUDS BELOW 12,000 FEET AGL WITH NO
       SIGNIFICANT WEATHER OR OBSTRUCTIONS TO VISION.

      THIS PRODUCT IS RELEASED AS TWO VERSIONS.  ONE VERSION NEAR
      THE TOP OF THE HOUR CONTAINING PRELIMINARY DATA FROM ALBUQUERQUE
      AND OTHER STATIONS.  A FINAL VERSION WITH ADDITIONAL DATA IS
      ISSUED ABOUT 10 MINUTES AFTER THE HOUR.

NMZ501-503-504-510>518-100900-
NORTHWEST PLATEAU/NORTHCENTRAL MOUNTAINS

CITY           SKY/WX    TMP DP  RH WIND       PRES   REMARKS
FARMINGTON     CLOUDY    28  21  75 E5        30.41F WCI  23
SANTA FE       CLOUDY    32  19  58 N13       30.40S WCI  22
TAOS           CLOUDY    23  16  74 N7        30.43S WCI  15

$$
NMZ402-403-502-505>509-100900-
WESTCENTRAL MOUNTAINS/SOUTHWEST MOUNTAINS

CITY           SKY/WX    TMP DP  RH WIND       PRES   REMARKS
GALLUP         CLEAR     22  17  81 E3        30.44F
SILVER CITY      N/A     32  19  59 N8        30.39S WCI  25

$$
NMZ407-409-411-412-100900-
SOUTHERN DESERTS

CITY           SKY/WX    TMP DP  RH WIND       PRES   REMARKS
DEMING         CLEAR     33  16  49 NW5       30.35F WCI  29
ALAMOGORDO     CLOUDY    39  16  38 N7        30.36S WCI  34
T OR C         CLEAR     39  18  42 W9        30.36S WCI  33

$$
NMZ519>523-100900-
CENTRAL VALLEYS/CENTRAL HIGHLANDS

CITY           SKY/WX    TMP DP  RH WIND       PRES   REMARKS
ALBUQUERQUE    CLOUDY    40  22  48 N6        30.40R
DOUBLE EAGLE   CLOUDY    28  15  56 CALM      30.41R
CLINES CORNERS CLOUDY    32  19  58 W8        30.39S WCI  25
BELEN          FAIR      31  15  52 N6        30.40S WCI  26
SOCORRO        NOT AVBL

$$
NMZ524>526-539-540-100900-
SOUTHCENTRAL MOUNTAINS

CITY           SKY/WX    TMP DP  RH WIND       PRES   REMARKS
RUIDOSO          N/A     37  10  32 NW5       30.43S WCI  34

$$
NMZ527>531-100900-
NORTHEAST HIGHLANDS/NORTHEAST PLAINS

CITY           SKY/WX    TMP DP  RH WIND       PRES   REMARKS
LAS VEGAS      CLOUDY    34  17  50 W5        30.39F WCI  30
RATON          CLOUDY    23  16  74 NE5       30.35F WCI  17
CLAYTON        CLOUDY    34  18  52 W13       30.29F WCI  25

$$
NMZ532>537-100900-
EASTCENTRAL PLAINS

CITY           SKY/WX    TMP DP  RH WIND       PRES   REMARKS
TUCUMCARI      CLOUDY    30  16  56 NW7       30.32F WCI  23
CANNON AFB     CLOUDY    39  17  39 NW9       30.32F WCI  33
CLOVIS AIRPORT CLOUDY    32  18  55 W10       30.33S WCI  24

$$
NMZ028-029-538-100900-
SOUTHEAST PLAINS

CITY           SKY/WX    TMP DP  RH WIND       PRES   REMARKS
ROSWELL        CLOUDY    37  21  52 N3        30.35S
ARTESIA        CLOUDY    30  21  69 NE5       30.36R WCI  25
CARLSBAD       CLOUDY    31  21  66 W5        30.34S WCI  26
HOBBS          CLOUDY    32  19  59 SW7       30.35F WCI  26


$$




USA.gov is the U.S. government's official web portal to all federal, state and local government web resources and services.